Flag for Colombia Weather past 2 weeks in Manizales, Colombia

Now
72 °F

Scattered clouds.


Feels Like: 72 °F
Forecast: 57 / 74 °F
Wind: 2 mph from North

Location: Pereira / Matecana


UV Index: 3 (Moderate)

Visibility: N/A


Pressure: 30.15 "Hg

Humidity: 78%

Dew point: 64 °F

Location of ManizalesLocation

Historic Weather in Manizales

°F

Manizales temperature yesterday

Maximum temperature yesterday: 77 °F (at 12:00 PM)
Minimum temperature yesterday: 64 °F (at 6:00 AM)
Average temperature yesterday: 71 °F

Past Weeks' High & Low Weather Summary

 TemperatureHumidityPressure
High86 °F (Apr 13, 4:00 PM)100% (Apr 20, 7:00 AM)30.19 "Hg (Apr 20, 7:00 AM)
Low64 °F (Apr 9, 10:00 PM)48% (Apr 9, 2:00 PM)29.91 "Hg (Apr 13, 4:00 PM)
Average73 °F76%30.06 "Hg
* Reported Apr 6 8:00 AM — Apr 21 8:00 AM, Manizales, Weather by CustomWeather, © 2014

Note: Actual official high and low records may vary slightly from our data, if they occured in-between our weather recording intervals... More about our weather records

Advertising

Historic Weather Conditions — Data for Previous 24 hours

 ConditionsComfort  
Time TempWeatherWind HumidityBarometerVisibility
8:00 AM
Apr 21
70 °FMild.2 mph78%30.12 "HgN/A
7:00 AM68 °FScattered clouds.5 mph78%30.11 "HgN/A
6:00 AM66 °FScattered clouds.8 mph88%30.10 "Hg6 mi
5:00 AM66 °FPassing clouds.2 mph88%30.10 "Hg5 mi
12:00 AM66 °FPassing clouds.6 mph83%30.09 "HgN/A
11:00 PM
Apr 20
68 °FPassing clouds.6 mph88%30.09 "HgN/A
10:00 PM70 °FPassing clouds.2 mph83%30.10 "HgN/A
9:00 PM70 °FPassing clouds.5 mph83%30.09 "HgN/A
8:00 PM70 °FPassing clouds.5 mph83%30.07 "HgN/A
7:00 PM72 °FPassing clouds.2 mph83%30.06 "HgN/A
6:00 PM73 °FScattered clouds.2 mph74%30.03 "HgN/A
5:00 PM77 °FScattered clouds.2 mph69%30.01 "HgN/A
4:00 PM75 °FScattered clouds.2 mph74%30.00 "HgN/A
3:00 PM73 °FScattered showers. Partly sunny.3 mph74%30.04 "HgN/A
2:00 PM75 °FScattered showers. Broken clouds.7 mph74%30.06 "HgN/A
1:00 PM77 °FScattered clouds.9 mph69%30.08 "HgN/A
12:00 PM77 °FScattered clouds.5 mph69%30.10 "HgN/A
11:00 AM75 °FScattered clouds.7 mph69%30.12 "HgN/A
10:00 AM73 °FScattered clouds.5 mph78%30.15 "HgN/A
9:00 AM70 °FScattered clouds.2 mph83%30.15 "Hg5 mi
Weather by CustomWeather, © 2014

See weather overview